This is the latest recevied weather packets stored in our database for station/object SP1BMW-13. If no packets are shown the sender has not sent any weather packets the latest 10 day(s).
| Time | Temp. | Humidity | Pressure | Rain* | Wind** | Luminosity | Snow |
|---|---|---|---|---|---|---|---|
| 1787809216 | 16.67° C | 72% | 1020.9 hPa | 0 mm | 0.45 m/s, 34° | 60 W/m² | - |
| 1787809156 | 16.67° C | 72% | 1020.8 hPa | 0 mm | 0.45 m/s, 353° | 59 W/m² | - |
| 1787809096 | 16.67° C | 73% | 1020.7 hPa | 0 mm | 0 m/s | 58 W/m² | - |
| 1787809036 | 16.67° C | 73% | 1021 hPa | 0 mm | 0 m/s | 58 W/m² | - |
| 1787808976 | 16.11° C | 74% | 1020.8 hPa | 0 mm | 0.89 m/s, 83° | 57 W/m² | - |
| 1787808916 | 16.11° C | 74% | 1020.7 hPa | 0 mm | 0.45 m/s, 140° | 56 W/m² | - |
| 1787808856 | 16.11° C | 74% | 1020.8 hPa | 0 mm | 0.45 m/s, 46° | 56 W/m² | - |
| 1787808796 | 16.11° C | 74% | 1020.8 hPa | 0 mm | 0.45 m/s, 50° | 55 W/m² | - |
| 1787808736 | 16.11° C | 74% | 1020.9 hPa | 0 mm | 0 m/s | 54 W/m² | - |
| 1787808676 | 16.11° C | 74% | 1020.8 hPa | 0 mm | 0.89 m/s, 51° | 53 W/m² | - |
| 1787808616 | 16.11° C | 74% | 1020.7 hPa | 0 mm | 0.45 m/s, 36° | 53 W/m² | - |
| 1787808556 | 16.11° C | 75% | 1020.9 hPa | 0 mm | 0.45 m/s, 28° | 52 W/m² | - |
| 1787808496 | 16.11° C | 75% | 1020.9 hPa | 0 mm | 0.45 m/s, 123° | 52 W/m² | - |
| 1787808436 | 16.11° C | 74% | 1020.7 hPa | 0 mm | 0.45 m/s, 41° | 51 W/m² | - |
| 1787808377 | 16.11° C | 75% | 1020.9 hPa | 0 mm | 0.45 m/s, 59° | 50 W/m² | - |
| 1787808316 | 16.11° C | 74% | 1021.1 hPa | 0 mm | 1.79 m/s, 47° | 50 W/m² | - |
| 1787808257 | 16.11° C | 74% | 1020.8 hPa | 0 mm | 0.89 m/s, 56° | 49 W/m² | - |
| 1787808197 | 16.11° C | 75% | 1020.7 hPa | 0 mm | 0.45 m/s, 356° | 48 W/m² | - |
| 1787808136 | 16.11° C | 75% | 1020.8 hPa | 0 mm | 0.45 m/s, 342° | 48 W/m² | - |
| 1787808076 | 15.56° C | 76% | 1020.8 hPa | 0 mm | 0 m/s | 47 W/m² | - |
| 1787808016 | 15.56° C | 76% | 1020.9 hPa | 0 mm | 0.89 m/s, 88° | 47 W/m² | - |
| 1787807956 | 15.56° C | 77% | 1020.9 hPa | 0 mm | 0 m/s | 46 W/m² | - |
| 1787807896 | 15.56° C | 76% | 1021 hPa | 0 mm | 0.89 m/s, 70° | 45 W/m² | - |
| 1787807836 | 15.56° C | 76% | 1020.8 hPa | 0 mm | 0.45 m/s, 34° | 45 W/m² | - |
| 1787807776 | 15.56° C | 77% | 1020.9 hPa | 0 mm | 0 m/s | 44 W/m² | - |
* Rain latest hour (hover to see other rain measurements)
** Current wind speed in m/s (hover to see current wind gust speed)